Find Optus D3

NORAD ID: 35756 Int'l Des: 2009-044 Owner: OPTS Country: AU operational
HEOCIRCULARGSO

Live Position

Loading 3D Globe...

About Optus D3

Description loading...

Upcoming Passes

Passes for default location (London). Set your location on the main map for personalized predictions.

Altitude History

Loading altitude history...

Two-Line Element Set

1 35756U 09044B 26111.81900839 -.00000153 00000-0 00000+0 0 9991
2 35756 0.8593 270.2257 0003115 114.6562 275.9809 1.00272125 61000
Epoch: Apr 21, 2026 • Age: 6 hours

Current Status

Altitude 35772.9 km
Velocity 3.08 km/s
Sub-Earth Point 0.72°N, 156.14°E
Launch Date Aug 21, 2009
Age 16.6 years
Type other

Technical Details

Classification Payload
Mass 2475.00 kg
Dry Mass 1182.00 kg
Total Mass 2475.00 kg
Length 3.90 m
Diameter 2.30 m
Span 22.40 m
Shape Box + 2 Pan
Manufacturer OSCD
Bus Type OSC Star 2.4
Phase Status In Orbit
Owner/State OPTS/AU

Most Searched